Vorticity
53 34 31 34 31 15 19 16 11 13 12 11 13 11 8 7 8 10 11 11 10 10 9 8 7 6 7 7 3 5 5 6 9 1 2 -1 -2 -3 -3 2 10 15 16
40 51 29 28 21 14 14 20 10 6 12 12 9 10 10 9 9 7 7 8 10 10 9 9 9 8 8 6 6 7 10 9 11 8 7 -1 -2 -1 2 1 3 3 3
23 19 27 23 15 5 11 32 21 12 5 4 14 11 9 8 5 6 7 7 7 8 6 6 4 3 5 11 10 7 6 6 6 7 9 6 9 8 3 1 2 3 0
27 28 30 14 25 36 -16 28 20 16 22 19 2 2 8 8 9 7 6 8 12 15 14 14 13 14 11 8 9 8 7 6 6 6 6 6 7 6 6 9 5 3 -0
15 19 20 15 8 21 11 -9 -7 16 13 18 19 20 19 13 11 19 21 13 9 11 12 12 12 11 9 8 7 8 7 8 10 11 9 7 7 6 5 6 8 6 8
13 13 14 14 22 30 10 13 11 12 15 14 9 9 12 11 8 6 5 4 5 6 7 8 7 9 10 15 19 17 17 15 11 12 15 13 9 11 12 9 6 7 7
11 7 11 11 16 12 28 5 20 19 11 8 7 14 11 8 9 10 10 14 16 18 20 17 15 14 12 13 15 14 14 13 13 17 22 17 11 12 13 13 16 18 13
6 13 14 7 5 5 9 11 11 10 7 15 14 14 12 11 14 19 12 12 11 11 2 14 16 15 8 14 14 9 4 12 16 14 11 12 15 21 16 12 7 7 8
2 1 1 11 25 17 7 15 15 17 15 12 12 17 17 13 9 3 1 10 8 9 9 10 6 8 7 6 5 -1 7 17 23 19 16 12 13 13 10 15 19 19 13
10 1 1 2 -2 25 23 7 7 12 17 14 7 5 7 10 12 15 12 9 8 8 6 2 5 7 8 1 4 7 2 10 20 14 13 22 31 15 10 13 10 10 12
6 2 -1 1 2 1 32 4 3 5 5 6 6 8 9 6 5 5 6 3 3 6 8 6 8 5 4 9 10 11 19 15 13 14 12 0 8 13 16 17 12 13 12
6 7 6 7 4 2 3 10 14 10 7 7 11 12 13 13 7 8 7 6 13 11 10 7 7 9 7 5 9 9 22 16 9 16 5 7 6 7 5 2 16 18 13
8 11 5 3 5 9 5 1 5 -0 -2 4 0 4 10 23 30 7 8 13 7 6 10 8 12 26 36 21 18 8 23 11 10 17 16 9 10 14 16 21 24 29 28
1 5 10 7 6 10 10 8 4 2 1 4 1 1 5 12 29 8 9 8 1 2 8 7 -0 1 13 25 29 23 14 6 7 15 3 18 16 20 22 27 29 12 14
11 7 4 2 1 5 8 2 17 9 8 6 2 -2 -2 9 7 13 13 0 0 3 4 6 8 7 11 9 21 25 13 4 10 16 13 13 10 27 38 22 26 29 11
10 4 9 8 2 3 3 10 4 8 16 13 9 10 6 8 -12 12 5 1 1 2 3 6 6 14 10 17 14 16 6 10 16 10 21 13 14 28 22 24 18 20 23
13 12 10 9 6 6 4 3 3 3 0 6 10 11 11 9 7 7 4 4 0 3 5 4 7 7 16 25 8 18 9 9 20 26 11 16 14 29 15 28 15 39 20
7 4 4 5 5 5 6 3 4 -1 1 6 6 11 14 12 9 6 4 2 4 3 6 5 6 4 -0 23 20 11 1 16 14 19 -10 12 17 10 17 22 19 12 11
8 12 12 13 15 13 12 10 8 7 1 6 2 4 7 10 17 9 8 7 6 6 7 8 6 4 7 10 10 34 18 0 12 17 2 2 9 18 17 10 19 13 25
8 5 11 16 16 14 12 12 9 10 12 10 3 1 3 7 -3 24 9 9 8 8 8 6 9 6 7 -1 4 4 22 20 17 11 27 18 20 5 18 -18 7 10 12
10 17 14 15 15 13 10 13 15 16 12 11 12 10 6 2 8 0 25 10 9 5 9 6 7 9 7 6 3 2 3 4 13 22 29 2 19 1 24 24 32 27 12
11 15 11 12 12 12 12 12 14 15 19 21 22 22 9 -4 7 6 -10 29 13 7 6 6 8 9 7 7 5 3 3 3 2 5 7 2 5 14 23 11 -2 -1 17
9 11 12 13 14 13 12 13 14 11 11 13 18 17 12 16 6 6 3 -13 30 5 8 5 9 8 9 7 8 6 4 4 4 3 2 3 2 2 3 4 4 12 24
13 12 15 16 16 15 14 14 14 12 10 11 11 13 15 12 12 11 19 6 -8 28 6 8 8 9 9 7 7 7 7 6 6 5 5 5 5 5 5 3 2 4 4
13 13 13 13 15 15 16 16 16 13 12 11 9 8 12 17 14 24 24 27 15 4 20 7 7 8 8 7 6 7 7 7 7 7 6 6 6 5 6 6 7 6 6
11 12 13 13 14 16 15 17 17 17 17 21 18 16 15 18 21 22 27 13 2 9 43 5 8 7 7 7 7 6 7 6 6 7 6 7 7 7 8 8 8 8 7
Height
5600 5603 5611 5619 5634 5647 5655 5666 5677 5688 5698 5707 5715 5721 5726 5731 5736 5740 5744 5747 5749 5752 5755 5757 5759 5761 5763 5765 5766 5768 5770 5771 5771 5771 5774 5775 5778 5780 5782 5782 5784 5785 5788
5613 5611 5614 5621 5632 5643 5652 5662 5672 5682 5692 5699 5707 5713 5719 5723 5727 5731 5734 5737 5740 5741 5743 5746 5748 5750 5751 5752 5754 5756 5757 5759 5758 5760 5760 5764 5768 5771 5771 5772 5774 5776 5777
5629 5626 5626 5631 5640 5648 5656 5663 5670 5678 5687 5694 5700 5706 5711 5715 5718 5722 5725 5728 5730 5731 5733 5735 5737 5738 5738 5740 5740 5741 5742 5744 5745 5745 5746 5748 5754 5754 5758 5760 5762 5764 5764
5642 5639 5639 5642 5647 5651 5659 5664 5668 5674 5680 5687 5693 5698 5703 5706 5709 5713 5715 5718 5719 5720 5721 5723 5724 5725 5725 5727 5727 5727 5728 5728 5730 5730 5732 5734 5736 5738 5741 5747 5748 5748 5751
5654 5649 5649 5650 5652 5654 5659 5663 5667 5671 5675 5680 5685 5689 5694 5698 5701 5704 5705 5705 5707 5708 5709 5711 5712 5712 5713 5714 5714 5714 5714 5713 5714 5715 5716 5719 5720 5721 5722 5728 5732 5734 5737
5665 5660 5657 5656 5657 5658 5660 5664 5667 5669 5672 5675 5678 5681 5684 5687 5690 5693 5694 5695 5696 5697 5698 5699 5700 5700 5700 5701 5700 5700 5700 5699 5699 5699 5701 5702 5703 5707 5706 5708 5713 5716 5722
5673 5669 5666 5663 5662 5663 5664 5666 5667 5669 5670 5672 5674 5676 5677 5679 5681 5684 5686 5687 5687 5687 5688 5689 5688 5688 5688 5688 5688 5687 5687 5686 5685 5685 5685 5685 5687 5689 5690 5690 5697 5697 5703
5678 5674 5671 5669 5667 5666 5667 5666 5667 5667 5668 5670 5671 5672 5673 5674 5675 5676 5678 5678 5678 5679 5680 5680 5679 5678 5678 5677 5675 5674 5673 5672 5670 5670 5670 5671 5672 5671 5673 5675 5678 5679 5682
5682 5678 5675 5672 5669 5667 5666 5666 5666 5666 5666 5666 5666 5667 5668 5669 5670 5671 5671 5671 5671 5671 5671 5670 5669 5667 5667 5665 5664 5663 5661 5659 5657 5656 5656 5656 5656 5656 5657 5658 5659 5661 5664
5681 5678 5675 5672 5668 5665 5663 5663 5663 5664 5664 5664 5664 5664 5664 5664 5665 5665 5665 5664 5664 5663 5662 5660 5659 5657 5655 5653 5652 5650 5648 5647 5645 5644 5643 5642 5641 5642 5642 5643 5643 5644 5647
5680 5677 5674 5672 5670 5667 5663 5662 5661 5661 5660 5660 5659 5659 5659 5658 5658 5657 5657 5657 5656 5654 5651 5649 5647 5646 5645 5642 5640 5637 5635 5634 5632 5631 5631 5630 5629 5629 5628 5627 5628 5629 5631
5677 5674 5671 5669 5667 5665 5663 5661 5659 5657 5656 5655 5654 5653 5651 5649 5649 5649 5648 5648 5646 5645 5642 5640 5637 5634 5632 5629 5627 5625 5622 5620 5620 5619 5618 5616 5616 5614 5612 5610 5611 5612 5615
5670 5667 5665 5663 5661 5660 5659 5657 5654 5652 5650 5649 5648 5646 5644 5641 5638 5639 5639 5639 5638 5636 5634 5631 5628 5623 5617 5613 5611 5610 5609 5609 5608 5607 5605 5603 5600 5597 5595 5593 5594 5597 5600
5663 5660 5657 5654 5652 5652 5650 5649 5648 5646 5644 5642 5640 5639 5637 5635 5633 5633 5632 5629 5629 5628 5626 5623 5619 5614 5607 5601 5597 5597 5597 5597 5596 5595 5593 5589 5586 5583 5579 5577 5579 5583 5585
5653 5652 5649 5647 5645 5643 5641 5640 5638 5636 5635 5633 5631 5630 5629 5628 5627 5626 5625 5623 5621 5619 5617 5614 5610 5604 5599 5594 5589 5587 5588 5587 5585 5584 5581 5578 5573 5568 5564 5565 5568 5569 5572
5641 5640 5638 5637 5635 5632 5630 5629 5627 5626 5624 5622 5621 5620 5620 5619 5617 5616 5615 5615 5613 5611 5608 5605 5602 5597 5592 5587 5583 5580 5580 5578 5576 5574 5572 5568 5563 5557 5556 5556 5557 5559 5561
5629 5627 5625 5623 5621 5619 5617 5616 5615 5613 5613 5611 5609 5608 5608 5607 5606 5606 5605 5604 5603 5601 5600 5597 5594 5590 5585 5580 5577 5574 5572 5570 5568 5566 5565 5561 5556 5551 5550 5549 5549 5550 5554
5613 5611 5608 5606 5605 5603 5601 5600 5601 5600 5599 5599 5595 5595 5594 5594 5593 5593 5592 5592 5592 5591 5590 5588 5586 5583 5580 5575 5570 5567 5565 5562 5561 5560 5558 5555 5552 5547 5544 5544 5545 5547 5548
5594 5593 5591 5589 5587 5586 5584 5583 5585 5583 5583 5582 5579 5580 5580 5579 5578 5578 5578 5578 5579 5579 5578 5578 5577 5576 5574 5571 5566 5561 5559 5557 5555 5553 5552 5550 5548 5544 5542 5541 5540 5542 5543
5577 5574 5572 5568 5566 5566 5564 5563 5565 5565 5566 5563 5562 5563 5563 5564 5563 5562 5564 5564 5564 5566 5567 5567 5567 5566 5566 5565 5562 5558 5554 5552 5549 5547 5545 5545 5544 5541 5539 5537 5538 5537 5538
5560 5556 5551 5549 5549 5547 5544 5542 5544 5546 5544 5542 5542 5544 5545 5545 5546 5548 5548 5549 5550 5551 5553 5555 5556 5556 5557 5557 5555 5553 5551 5549 5545 5543 5541 5541 5540 5538 5536 5533 5532 5534 5534
5539 5540 5533 5530 5528 5525 5524 5523 5523 5522 5522 5522 5522 5523 5524 5525 5527 5530 5532 5532 5535 5537 5539 5542 5544 5545 5545 5546 5546 5546 5545 5543 5542 5540 5539 5537 5536 5534 5532 5531 5530 5531 5531
5515 5513 5513 5513 5511 5507 5503 5501 5502 5499 5497 5498 5500 5500 5502 5504 5508 5511 5514 5516 5519 5523 5525 5527 5531 5532 5534 5535 5536 5537 5536 5536 5535 5534 5533 5532 5532 5531 5530 5529 5528 5528 5528
5500 5494 5492 5492 5491 5489 5485 5482 5481 5477 5475 5476 5478 5479 5480 5482 5485 5490 5495 5500 5502 5506 5510 5513 5516 5519 5521 5522 5525 5526 5527 5527 5527 5527 5526 5526 5526 5526 5526 5525 5525 5526 5526
5481 5476 5473 5471 5471 5468 5467 5464 5460 5457 5454 5454 5457 5457 5459 5462 5466 5471 5477 5482 5486 5489 5493 5498 5502 5506 5508 5510 5512 5515 5517 5517 5518 5518 5518 5518 5518 5518 5518 5518 5519 5519 5520
5460 5457 5455 5452 5450 5448 5447 5445 5441 5438 5436 5436 5438 5438 5439 5442 5448 5454 5460 5466 5471 5473 5476 5482 5487 5491 5495 5497 5500 5503 5505 5507 5507 5508 5509 5510 5510 5510 5510 5510 5511 5511 5511